AAL143 PHNL-KLAX

Flight info

Callsign AAL143
Flight time 2h 49m
Altitude 37000
Route MKK5 CODDY EBBER R577 ETECO/N0481F390 R577 ELKEY RYDRR2
Aircraft B77W/H-SDE1E2E3FGHIJ2J3J4J5M1RWXY/LB1D1

Departure

Time 2026-05-05 16:45
Airport Daniel K. Inouye International Airport (PHNL)

Arrival

Time 2026-05-05 19:35
Airport Los Angeles International Airport (KLAX)
Time Latitude Longitude Altitude Speed Heading
2026-05-05 16:03 21.32868 -157.91649 40 ft 0 kts
2026-05-05 16:31 21.32866 -157.91649 39 ft 2 kts
2026-05-05 16:32 21.32851 -157.91649 39 ft 2 kts
2026-05-05 16:32 21.32836 -157.91649 39 ft 2 kts
2026-05-05 16:32 21.32822 -157.91649 38 ft 0 kts
2026-05-05 16:32 21.32811 -157.91649 38 ft 2 kts 352°
2026-05-05 16:33 21.32797 -157.91644 38 ft 2 kts 329°
2026-05-05 16:33 21.32787 -157.91638 37 ft 2 kts 316°
2026-05-05 16:33 21.32778 -157.91625 37 ft 2 kts 298°
2026-05-05 16:33 21.32772 -157.91611 37 ft 2 kts 280°
2026-05-05 16:34 21.32772 -157.91600 37 ft 0 kts 269°
2026-05-05 16:34 21.32772 -157.91597 37 ft 0 kts 269°
2026-05-05 16:38 21.32771 -157.91638 37 ft 8 kts 269°
2026-05-05 16:38 21.32770 -157.91722 37 ft 11 kts 269°
2026-05-05 16:38 21.32770 -157.91806 38 ft 11 kts 270°
2026-05-05 16:38 21.32735 -157.91870 38 ft 11 kts 179°
2026-05-05 16:39 21.32661 -157.91855 37 ft 11 kts 167°
2026-05-05 16:39 21.32582 -157.91809 35 ft 15 kts 145°
2026-05-05 16:39 21.32486 -157.91734 33 ft 18 kts 143°
2026-05-05 16:39 21.32384 -157.91652 31 ft 17 kts 142°
2026-05-05 16:40 21.32287 -157.91576 30 ft 16 kts 144°
2026-05-05 16:40 21.32196 -157.91504 30 ft 15 kts 144°
2026-05-05 16:40 21.32110 -157.91481 29 ft 12 kts 223°
2026-05-05 16:40 21.32056 -157.91557 29 ft 13 kts 233°
2026-05-05 16:41 21.31980 -157.91638 29 ft 17 kts 216°
2026-05-05 16:41 21.31881 -157.91728 28 ft 20 kts 230°
2026-05-05 16:41 21.31794 -157.91850 29 ft 19 kts 233°
2026-05-05 16:41 21.31716 -157.91962 29 ft 17 kts 233°
2026-05-05 16:42 21.31645 -157.92061 29 ft 17 kts 233°
2026-05-05 16:42 21.31561 -157.92180 29 ft 22 kts 233°
2026-05-05 16:42 21.31469 -157.92310 29 ft 20 kts 233°
2026-05-05 16:42 21.31385 -157.92427 29 ft 19 kts 233°
2026-05-05 16:43 21.31307 -157.92537 29 ft 17 kts 234°
2026-05-05 16:43 21.31309 -157.92624 29 ft 11 kts 307°
2026-05-05 16:43 21.31366 -157.92674 30 ft 9 kts 322°
2026-05-05 16:43 21.31402 -157.92696 30 ft 3 kts
2026-05-05 16:44 21.31413 -157.92685 30 ft 0 kts 52°
2026-05-05 16:44 21.31419 -157.92676 31 ft 7 kts 52°
2026-05-05 16:45 21.31573 -157.92454 31 ft 72 kts 53°
2026-05-05 16:45 21.32013 -157.91834 29 ft 136 kts 53°
2026-05-05 16:45 21.32676 -157.90895 285 ft 164 kts 53°
2026-05-05 16:45 21.33243 -157.89830 888 ft 170 kts 84°
2026-05-05 16:46 21.32923 -157.88670 1475 ft 170 kts 132°
2026-05-05 16:46 21.32024 -157.87842 1944 ft 174 kts 134°
2026-05-05 16:46 21.31437 -157.86655 2189 ft 190 kts 106°
2026-05-05 16:46 21.31075 -157.85237 2475 ft 208 kts 105°
2026-05-05 16:47 21.30684 -157.83675 2880 ft 225 kts 105°
2026-05-05 16:47 21.30258 -157.81969 3776 ft 249 kts 105°
2026-05-05 16:47 21.29800 -157.80136 4984 ft 261 kts 105°
2026-05-05 16:47 21.29330 -157.78261 6216 ft 269 kts 105°
2026-05-05 16:48 21.28845 -157.76321 7376 ft 278 kts 105°
2026-05-05 16:48 21.28341 -157.74312 8506 ft 286 kts 105°
2026-05-05 16:48 21.27825 -157.72252 9562 ft 295 kts 105°
2026-05-05 16:48 21.27289 -157.70113 10616 ft 304 kts 105°
2026-05-05 16:49 21.26730 -157.67883 11430 ft 322 kts 105°
2026-05-05 16:49 21.26135 -157.65512 12290 ft 340 kts 105°
2026-05-05 16:49 21.25505 -157.63007 13183 ft 358 kts 105°
2026-05-05 16:49 21.24833 -157.60335 13546 ft 392 kts 105°
2026-05-05 16:50 21.24094 -157.57397 13916 ft 417 kts 105°
2026-05-05 16:50 21.23340 -157.54404 15159 ft 420 kts 105°
2026-05-05 16:50 21.22587 -157.51410 16448 ft 422 kts 105°
2026-05-05 16:50 21.21821 -157.48373 17341 ft 433 kts 105°
2026-05-05 16:51 21.21023 -157.45210 18216 ft 443 kts 105°
2026-05-05 16:51 21.20219 -157.42030 19140 ft 451 kts 105°
2026-05-05 16:51 21.19394 -157.38763 20041 ft 458 kts 105°
2026-05-05 16:51 21.18564 -157.35480 20857 ft 465 kts 105°
2026-05-05 16:52 21.17713 -157.32123 21641 ft 471 kts 105°
2026-05-05 16:52 21.16843 -157.28687 22357 ft 479 kts 105°
2026-05-05 16:52 21.15976 -157.25269 23074 ft 485 kts 105°
2026-05-05 16:52 21.15229 -157.21729 23781 ft 490 kts 98°
2026-05-05 16:53 21.14975 -157.18043 24489 ft 495 kts 89°
2026-05-05 16:53 21.15252 -157.14391 25172 ft 500 kts 80°
2026-05-05 16:53 21.16078 -157.10739 25849 ft 503 kts 70°
2026-05-05 16:53 21.17365 -157.07265 26499 ft 507 kts 65°
2026-05-05 16:54 21.18782 -157.03815 27143 ft 511 kts 65°
2026-05-05 16:54 21.20205 -157.00343 27758 ft 516 kts 65°
2026-05-05 16:54 21.21650 -156.96785 28358 ft 521 kts 65°
2026-05-05 16:54 21.23096 -156.93201 28957 ft 526 kts 65°
2026-05-05 16:55 21.24549 -156.89578 29543 ft 529 kts 65°
2026-05-05 16:55 21.25990 -156.85969 30247 ft 530 kts 65°
2026-05-05 16:55 21.27425 -156.82367 30947 ft 530 kts 65°
2026-05-05 16:55 21.28885 -156.78693 31653 ft 530 kts 65°
2026-05-05 16:56 21.30304 -156.75113 32280 ft 530 kts 65°
2026-05-05 16:56 21.31740 -156.71477 32907 ft 531 kts 67°
2026-05-05 16:56 21.32897 -156.67719 33492 ft 533 kts 76°
2026-05-05 16:56 21.33538 -156.63823 34151 ft 533 kts 84°
2026-05-05 16:57 21.33841 -156.59857 34849 ft 532 kts 86°
2026-05-05 16:57 21.34094 -156.55898 35536 ft 530 kts 86°
2026-05-05 16:57 21.34342 -156.51938 36150 ft 530 kts 86°
2026-05-05 16:57 21.34591 -156.47955 36622 ft 531 kts 86°
2026-05-05 16:58 21.34835 -156.44022 36991 ft 534 kts 86°
2026-05-05 16:58 21.35082 -156.40030 37055 ft 537 kts 86°
2026-05-05 16:58 21.35570 -156.32103 37053 ft 534 kts 87°
2026-05-05 16:59 21.36056 -156.24142 37052 ft 535 kts 87°
2026-05-05 16:59 21.36537 -156.16196 37052 ft 534 kts 87°
2026-05-05 17:00 21.37014 -156.08269 37055 ft 536 kts 87°
2026-05-05 17:00 21.37488 -156.00319 37059 ft 535 kts 87°
2026-05-05 17:01 21.37960 -155.92331 37071 ft 535 kts 87°
2026-05-05 17:01 21.38432 -155.84293 37076 ft 536 kts 87°
2026-05-05 17:02 21.38897 -155.76302 37078 ft 535 kts 87°
2026-05-05 17:02 21.39357 -155.68332 37077 ft 534 kts 87°
2026-05-05 17:03 21.39814 -155.60356 37078 ft 536 kts 87°
2026-05-05 17:03 21.40268 -155.52362 37079 ft 536 kts 87°
2026-05-05 17:04 21.40718 -155.44354 37086 ft 537 kts 87°
2026-05-05 17:04 21.41167 -155.36322 37085 ft 535 kts 86°
2026-05-05 17:05 21.41609 -155.28339 37073 ft 537 kts 87°
2026-05-05 17:05 21.42047 -155.20355 37069 ft 534 kts 87°
2026-05-05 17:06 21.42607 -155.12404 37075 ft 536 kts 82°
2026-05-05 17:06 21.43783 -155.04527 37074 ft 536 kts 81°
2026-05-05 17:07 21.44984 -154.96631 37081 ft 537 kts 81°
2026-05-05 17:07 21.46173 -154.88756 37089 ft 536 kts 81°
2026-05-05 17:08 21.47361 -154.80849 37075 ft 536 kts 81°
2026-05-05 17:08 21.48548 -154.72914 37084 ft 537 kts 81°
2026-05-05 17:09 21.49728 -154.64992 37083 ft 537 kts 81°
2026-05-05 17:09 21.50907 -154.57040 37081 ft 537 kts 81°
2026-05-05 17:10 21.52082 -154.49097 37085 ft 537 kts 81°
2026-05-05 17:10 21.53251 -154.41161 37092 ft 537 kts 81°
2026-05-05 17:11 21.54414 -154.33238 37074 ft 537 kts 81°
2026-05-05 17:11 21.55572 -154.25325 37074 ft 536 kts 81°
2026-05-05 17:12 21.56722 -154.17439 37076 ft 537 kts 81°
2026-05-05 17:12 21.57876 -154.09497 37080 ft 536 kts 81°
2026-05-05 17:13 21.59016 -154.01625 37086 ft 537 kts 81°
2026-05-05 17:13 21.60164 -153.93674 37088 ft 536 kts 81°
2026-05-05 17:14 21.61307 -153.85725 37083 ft 537 kts 81°
2026-05-05 17:14 21.62447 -153.77774 37088 ft 537 kts 81°
2026-05-05 17:15 21.63589 -153.69775 37093 ft 538 kts 81°
2026-05-05 17:15 21.64717 -153.61855 37089 ft 537 kts 81°
2026-05-05 17:16 21.65849 -153.53873 37088 ft 539 kts 81°
2026-05-05 17:16 21.66977 -153.45894 37093 ft 537 kts 81°
2026-05-05 17:17 21.68100 -153.37917 37093 ft 537 kts 81°
2026-05-05 17:17 21.69214 -153.29979 37078 ft 539 kts 81°
2026-05-05 17:18 21.70330 -153.22000 37075 ft 537 kts 81°
2026-05-05 17:18 21.71938 -153.14214 37082 ft 536 kts 68°
2026-05-05 17:19 21.75179 -153.07028 37083 ft 532 kts 59°
2026-05-05 17:19 21.78721 -153.00055 37089 ft 532 kts 59°
2026-05-05 17:20 21.82240 -152.93105 37092 ft 535 kts 59°
2026-05-05 17:20 21.85788 -152.86073 37093 ft 532 kts 59°
2026-05-05 17:21 21.89340 -152.79019 37092 ft 533 kts 59°
2026-05-05 17:22 21.94633 -152.68480 37098 ft 531 kts 59°
2026-05-05 17:22 21.98146 -152.61470 37094 ft 532 kts 59°
2026-05-05 17:23 22.01662 -152.54445 37097 ft 530 kts 59°
2026-05-05 17:23 22.05162 -152.47444 37100 ft 531 kts 59°
2026-05-05 17:24 22.08670 -152.40413 37101 ft 529 kts 59°
2026-05-05 17:24 22.12172 -152.33386 37090 ft 530 kts 59°
2026-05-05 17:25 22.15651 -152.26396 37093 ft 531 kts 59°
2026-05-05 17:25 22.19134 -152.19389 37091 ft 530 kts 59°
2026-05-05 17:26 22.22602 -152.12402 37093 ft 529 kts 59°
2026-05-05 17:26 22.26103 -152.05341 37096 ft 540 kts 59°
2026-05-05 17:27 22.29688 -151.98102 37098 ft 554 kts 59°
2026-05-05 17:27 22.33301 -151.90790 37098 ft 553 kts 59°
2026-05-05 17:28 22.36934 -151.83406 37106 ft 554 kts 59°
2026-05-05 17:28 22.40531 -151.76062 37111 ft 551 kts 59°
2026-05-05 17:29 22.44112 -151.68739 37114 ft 553 kts 60°
2026-05-05 17:29 22.47693 -151.61408 37116 ft 552 kts 59°
2026-05-05 17:30 22.51269 -151.54077 37117 ft 552 kts 60°
2026-05-05 17:30 22.54856 -151.46713 37120 ft 551 kts 60°
2026-05-05 17:31 22.58428 -151.39369 37125 ft 551 kts 60°
2026-05-05 17:31 22.61986 -151.32044 37114 ft 551 kts 60°
2026-05-05 17:32 22.65550 -151.24695 37113 ft 552 kts 60°
2026-05-05 17:32 22.69114 -151.17335 37111 ft 549 kts 60°
2026-05-05 17:33 22.72656 -151.10013 37115 ft 551 kts 60°
2026-05-05 17:33 22.76198 -151.02679 37113 ft 551 kts 60°
2026-05-05 17:34 22.79745 -150.95323 37111 ft 550 kts 60°
2026-05-05 17:34 22.83300 -150.87941 37113 ft 550 kts 60°
2026-05-05 17:35 22.86836 -150.80583 37114 ft 549 kts 60°
2026-05-05 17:35 22.90381 -150.73200 37115 ft 549 kts 60°
2026-05-05 17:36 22.93887 -150.65884 37117 ft 550 kts 60°
2026-05-05 17:36 22.97421 -150.58504 37120 ft 548 kts 60°
2026-05-05 17:37 23.00906 -150.51210 37120 ft 549 kts 60°
2026-05-05 17:37 23.04444 -150.43797 37118 ft 549 kts 60°
2026-05-05 17:38 23.07981 -150.36375 37121 ft 550 kts 60°
2026-05-05 17:38 23.11499 -150.28983 37104 ft 550 kts 60°
2026-05-05 17:39 23.14995 -150.21623 37113 ft 551 kts 60°
2026-05-05 17:39 23.18505 -150.14221 37111 ft 549 kts 60°
2026-05-05 17:40 23.21995 -150.06853 37114 ft 550 kts 60°
2026-05-05 17:40 23.25492 -149.99460 37116 ft 550 kts 60°
2026-05-05 17:41 23.28995 -149.92042 37121 ft 550 kts 60°
2026-05-05 17:41 23.32490 -149.84628 37122 ft 551 kts 60°
2026-05-05 17:42 23.35980 -149.77216 37117 ft 550 kts 60°
2026-05-05 17:42 23.39452 -149.69830 37128 ft 550 kts 60°
2026-05-05 17:43 23.42919 -149.62442 37125 ft 549 kts 60°
2026-05-05 17:43 23.46396 -149.55023 37126 ft 549 kts 60°
2026-05-05 17:44 23.49871 -149.47597 37129 ft 549 kts 60°
2026-05-05 17:44 23.53326 -149.40202 37133 ft 550 kts 60°
2026-05-05 17:45 23.56810 -149.32735 37118 ft 551 kts 60°
2026-05-05 17:45 23.60265 -149.25316 37121 ft 551 kts 60°
2026-05-05 17:46 23.63737 -149.17850 37122 ft 551 kts 60°
2026-05-05 17:46 23.67183 -149.10428 37122 ft 551 kts 60°
2026-05-05 17:47 23.70644 -149.02962 37122 ft 550 kts 60°
2026-05-05 17:47 23.74092 -148.95512 37127 ft 551 kts 60°
2026-05-05 17:48 23.77537 -148.88058 37130 ft 551 kts 60°
2026-05-05 17:48 23.80989 -148.80577 37133 ft 551 kts 60°
2026-05-05 17:49 23.84454 -148.73055 37132 ft 552 kts 60°
2026-05-05 17:49 23.87865 -148.65639 37136 ft 552 kts 60°
2026-05-05 17:50 23.91306 -148.58145 37139 ft 551 kts 60°
2026-05-05 17:50 23.94750 -148.50635 37138 ft 551 kts 60°
2026-05-05 17:51 23.98177 -148.43149 37138 ft 550 kts 60°
2026-05-05 17:51 24.01626 -148.35602 37141 ft 551 kts 60°
2026-05-05 17:52 24.05025 -148.28152 37130 ft 551 kts 61°
2026-05-05 17:52 24.08463 -148.20607 37128 ft 552 kts 60°
2026-05-05 17:53 24.11859 -148.13139 37132 ft 551 kts 60°
2026-05-05 17:53 24.15276 -148.05617 37136 ft 551 kts 60°
2026-05-05 17:54 24.19223 -147.96907 37137 ft 551 kts 60°
2026-05-05 17:54 24.24696 -147.84808 37139 ft 550 kts 60°
2026-05-05 17:54 25.71975 -144.50952 37319 ft 544 kts 56°
2026-05-05 17:55 26.80663 -141.83305 37554 ft 527 kts 57°
2026-05-05 17:55 26.82292 -141.79625 37203 ft 524 kts 66°
2026-05-05 17:55 26.83434 -141.75775 37237 ft 528 kts 71°
2026-05-05 17:56 29.46880 -134.55167 37679 ft 523 kts 68°
2026-05-05 17:56 30.10245 -132.32587 37327 ft 523 kts 59°
2026-05-05 17:56 30.11552 -132.28662 37208 ft 522 kts 68°
2026-05-05 17:57 30.13154 -132.20432 37216 ft 533 kts 71°
2026-05-05 17:57 30.14996 -132.12111 37211 ft 530 kts 68°
2026-05-05 17:58 30.17066 -132.03984 37207 ft 527 kts 66°
2026-05-05 17:58 30.19274 -131.95911 37200 ft 529 kts 66°
2026-05-05 17:59 30.21569 -131.87810 37200 ft 530 kts 65°
2026-05-05 17:59 30.23897 -131.79746 37194 ft 528 kts 65°
2026-05-05 18:00 30.26229 -131.71742 37200 ft 529 kts 65°
2026-05-05 18:00 30.28584 -131.63693 37199 ft 528 kts 65°
2026-05-05 18:01 30.30951 -131.55611 37199 ft 530 kts 65°
2026-05-05 18:01 30.33308 -131.47549 37201 ft 529 kts 65°
2026-05-05 18:02 30.35654 -131.39514 37199 ft 527 kts 65°
2026-05-05 18:02 30.38008 -131.31447 37195 ft 530 kts 66°
2026-05-05 18:03 30.40354 -131.23381 37206 ft 531 kts 66°
2026-05-05 18:03 30.42703 -131.15288 37209 ft 532 kts 66°
2026-05-05 18:04 30.45046 -131.07190 37214 ft 532 kts 66°
2026-05-05 18:04 30.47387 -130.99078 37212 ft 530 kts 66°
2026-05-05 18:05 30.49738 -130.90918 37215 ft 533 kts 66°
2026-05-05 18:05 30.52081 -130.82758 37215 ft 531 kts 66°
2026-05-05 18:06 30.54411 -130.74628 37214 ft 533 kts 66°
2026-05-05 18:06 30.56754 -130.66426 37206 ft 531 kts 66°
2026-05-05 18:07 30.59077 -130.58272 37200 ft 533 kts 66°
2026-05-05 18:07 30.61406 -130.50075 37198 ft 530 kts 66°
2026-05-05 18:08 30.63726 -130.41893 37199 ft 532 kts 67°
2026-05-05 18:08 30.66044 -130.33693 37195 ft 533 kts 67°
2026-05-05 18:09 30.68358 -130.25485 37189 ft 533 kts 67°
2026-05-05 18:09 30.70637 -130.17377 37189 ft 533 kts 67°
2026-05-05 18:10 30.72944 -130.09148 37189 ft 533 kts 68°
2026-05-05 18:10 30.75222 -130.01001 37189 ft 535 kts 68°
2026-05-05 18:11 30.77520 -129.92758 37190 ft 532 kts 68°
2026-05-05 18:11 30.79814 -129.84512 37191 ft 534 kts 68°
2026-05-05 18:12 30.82085 -129.76321 37189 ft 533 kts 68°
2026-05-05 18:12 30.84357 -129.68109 37188 ft 533 kts 68°
2026-05-05 18:13 30.86636 -129.59847 37185 ft 535 kts 68°
2026-05-05 18:13 30.88896 -129.51630 37183 ft 535 kts 68°
2026-05-05 18:14 30.91156 -129.43390 37186 ft 537 kts 68°
2026-05-05 18:14 30.93449 -129.35004 37183 ft 535 kts 67°
2026-05-05 18:15 30.95703 -129.26741 37168 ft 538 kts 68°
2026-05-05 18:15 30.97956 -129.18455 37168 ft 538 kts 68°
2026-05-05 18:16 31.00194 -129.10204 37171 ft 538 kts 68°
2026-05-05 18:16 31.02445 -129.01881 37167 ft 538 kts 68°
2026-05-05 18:17 31.04679 -128.93594 37160 ft 538 kts 68°
2026-05-05 18:17 31.06909 -128.85303 37424 ft 540 kts 68°
2026-05-05 18:17 31.08032 -128.81122 36947 ft 541 kts 68°
2026-05-05 18:18 31.09155 -128.76927 37093 ft 537 kts 68°
2026-05-05 18:18 31.10262 -128.72792 37371 ft 541 kts 68°
2026-05-05 18:18 31.11389 -128.68573 36992 ft 540 kts 68°
2026-05-05 18:18 31.12497 -128.64416 37362 ft 541 kts 68°
2026-05-05 18:19 31.13614 -128.60226 37082 ft 539 kts 68°
2026-05-05 18:19 31.15840 -128.51854 37136 ft 543 kts 68°
2026-05-05 18:20 31.18067 -128.43449 37170 ft 542 kts 68°
2026-05-05 18:20 31.20278 -128.35080 37166 ft 542 kts 68°
2026-05-05 18:21 31.22494 -128.26674 37150 ft 541 kts 69°
2026-05-05 18:21 31.24698 -128.18286 37157 ft 543 kts 69°
2026-05-05 18:22 31.26915 -128.09824 37156 ft 543 kts 69°
2026-05-05 18:22 31.29103 -128.01443 37163 ft 543 kts 69°
2026-05-05 18:23 31.31299 -127.93009 37159 ft 542 kts 69°
2026-05-05 18:23 31.33504 -127.84520 37159 ft 542 kts 69°
2026-05-05 18:24 31.35677 -127.76125 37161 ft 541 kts 69°
2026-05-05 18:24 31.37861 -127.67660 37160 ft 541 kts 69°
2026-05-05 18:25 31.40016 -127.59289 37159 ft 542 kts 69°
2026-05-05 18:25 31.42177 -127.50864 37161 ft 541 kts 69°
2026-05-05 18:26 31.44342 -127.42396 37161 ft 540 kts 69°
2026-05-05 18:26 31.46488 -127.33984 37159 ft 542 kts 70°
2026-05-05 18:27 31.48642 -127.25510 37147 ft 539 kts 70°
2026-05-05 18:27 31.50776 -127.17091 37149 ft 541 kts 70°
2026-05-05 18:28 31.53964 -127.04464 37166 ft 539 kts 70°
2026-05-05 18:28 31.56074 -126.96075 37145 ft 541 kts 70°
2026-05-05 18:29 31.58189 -126.87641 37156 ft 541 kts 70°
2026-05-05 18:29 31.60308 -126.79165 37144 ft 541 kts 70°
2026-05-05 18:30 31.62415 -126.70712 37157 ft 540 kts 70°
2026-05-05 18:30 31.64513 -126.62268 37146 ft 540 kts 70°
2026-05-05 18:31 31.66618 -126.53764 37149 ft 539 kts 70°
2026-05-05 18:31 31.68692 -126.45368 37146 ft 539 kts 70°
2026-05-05 18:32 31.70768 -126.36932 37143 ft 540 kts 70°
2026-05-05 18:32 31.72831 -126.28522 37133 ft 538 kts 71°
2026-05-05 18:33 31.74901 -126.20061 37133 ft 539 kts 71°
2026-05-05 18:33 31.76960 -126.11617 37132 ft 539 kts 71°
2026-05-05 18:34 31.79015 -126.03162 37130 ft 539 kts 71°
2026-05-05 18:34 31.81053 -125.94753 37131 ft 539 kts 71°
2026-05-05 18:35 31.83093 -125.86305 37130 ft 539 kts 71°
2026-05-05 18:35 31.85135 -125.77827 37131 ft 538 kts 71°
2026-05-05 18:36 31.87165 -125.69365 37131 ft 538 kts 71°
2026-05-05 18:36 31.89189 -125.60905 37133 ft 539 kts 71°
2026-05-05 18:37 31.91195 -125.52492 37131 ft 537 kts 71°
2026-05-05 18:37 31.93211 -125.44010 37129 ft 537 kts 71°
2026-05-05 18:38 31.95214 -125.35558 37125 ft 537 kts 71°
2026-05-05 18:38 31.97202 -125.27140 37115 ft 536 kts 72°
2026-05-05 18:39 31.99193 -125.18682 37110 ft 535 kts 72°
2026-05-05 18:39 32.01165 -125.10279 37105 ft 539 kts 71°
2026-05-05 18:40 32.03159 -125.01754 37107 ft 537 kts 71°
2026-05-05 18:40 32.05138 -124.93263 37104 ft 538 kts 71°
2026-05-05 18:41 32.07116 -124.84749 37107 ft 536 kts 71°
2026-05-05 18:41 32.09081 -124.76264 37107 ft 535 kts 71°
2026-05-05 18:42 32.11027 -124.67828 37111 ft 532 kts 71°
2026-05-05 18:42 32.12965 -124.59405 37112 ft 534 kts 71°
2026-05-05 18:43 32.14911 -124.50919 37112 ft 534 kts 71°
2026-05-05 18:43 32.16844 -124.42461 37111 ft 535 kts 72°
2026-05-05 18:44 32.18780 -124.33958 37116 ft 533 kts 72°
2026-05-05 18:44 32.20701 -124.25500 37113 ft 535 kts 72°
2026-05-05 18:45 32.22619 -124.17017 37104 ft 531 kts 72°
2026-05-05 18:45 32.24522 -124.08569 37107 ft 532 kts 72°
2026-05-05 18:46 32.26290 -124.00118 37118 ft 535 kts 73°
2026-05-05 18:46 32.28060 -123.91558 37112 ft 530 kts 73°
2026-05-05 18:47 32.29813 -123.83080 37111 ft 534 kts 73°
2026-05-05 18:47 32.31563 -123.74586 37110 ft 532 kts 73°
2026-05-05 18:48 32.33315 -123.66067 37114 ft 532 kts 73°
2026-05-05 18:48 32.35055 -123.57574 37114 ft 533 kts 73°
2026-05-05 18:49 32.36786 -123.49098 37115 ft 530 kts 73°
2026-05-05 18:49 32.38514 -123.40606 37113 ft 531 kts 73°
2026-05-05 18:50 32.40232 -123.32133 37104 ft 531 kts 73°
2026-05-05 18:50 32.41945 -123.23656 37104 ft 530 kts 73°
2026-05-05 18:51 32.43657 -123.15146 37108 ft 531 kts 73°
2026-05-05 18:51 32.45367 -123.06618 37108 ft 529 kts 73°
2026-05-05 18:52 32.47077 -122.98128 37095 ft 531 kts 72°
2026-05-05 18:52 32.49036 -122.89695 37096 ft 528 kts 71°
2026-05-05 18:53 32.51000 -122.81286 37109 ft 531 kts 71°
2026-05-05 18:53 32.52948 -122.72879 37101 ft 532 kts 71°
2026-05-05 18:54 32.54903 -122.64392 37102 ft 533 kts 71°
2026-05-05 18:54 32.56819 -122.56025 37245 ft 527 kts 71°
2026-05-05 18:55 32.57781 -122.51820 37115 ft 531 kts 71°
2026-05-05 18:55 32.58740 -122.47609 37102 ft 526 kts 71°
2026-05-05 18:55 32.60658 -122.39175 37086 ft 529 kts 71°
2026-05-05 18:56 32.62565 -122.30756 37087 ft 529 kts 72°
2026-05-05 18:56 32.64462 -122.22353 37082 ft 529 kts 72°
2026-05-05 18:57 32.66352 -122.13952 37082 ft 530 kts 72°
2026-05-05 18:57 32.68462 -122.05611 37079 ft 526 kts 63°
2026-05-05 18:58 32.71996 -121.98026 37074 ft 520 kts 54°
2026-05-05 18:58 32.75808 -121.90743 37077 ft 518 kts 54°
2026-05-05 18:59 32.79593 -121.83492 37074 ft 518 kts 54°
2026-05-05 18:59 32.83419 -121.76139 37075 ft 519 kts 54°
2026-05-05 19:00 32.87199 -121.68855 37077 ft 518 kts 54°
2026-05-05 19:00 32.90989 -121.61533 37072 ft 519 kts 54°
2026-05-05 19:01 32.94753 -121.54246 37076 ft 518 kts 55°
2026-05-05 19:01 32.98518 -121.46942 37071 ft 520 kts 54°
2026-05-05 19:02 33.02299 -121.39592 37075 ft 519 kts 55°
2026-05-05 19:02 33.06072 -121.32243 37072 ft 519 kts 55°
2026-05-05 19:03 33.09863 -121.24844 37086 ft 520 kts 55°
2026-05-05 19:03 33.13590 -121.17553 37075 ft 518 kts 55°
2026-05-05 19:04 33.17368 -121.10149 37070 ft 518 kts 55°
2026-05-05 19:04 33.21096 -121.02829 37056 ft 517 kts 55°
2026-05-05 19:05 33.24856 -120.95431 37065 ft 521 kts 55°
2026-05-05 19:05 33.28345 -120.88552 37061 ft 519 kts 55°
2026-05-05 19:06 33.32098 -120.81140 37058 ft 521 kts 55°
2026-05-05 19:06 33.35813 -120.73783 36925 ft 512 kts 56°
2026-05-05 19:07 33.37642 -120.70156 36235 ft 512 kts 55°
2026-05-05 19:07 33.39485 -120.66500 35274 ft 514 kts 55°
2026-05-05 19:07 33.41316 -120.62862 34739 ft 505 kts 55°
2026-05-05 19:07 33.43102 -120.59307 34557 ft 491 kts 55°
2026-05-05 19:08 33.44841 -120.55841 34326 ft 480 kts 55°
2026-05-05 19:08 33.46545 -120.52447 33819 ft 477 kts 55°
2026-05-05 19:08 33.48260 -120.49030 33150 ft 478 kts 55°
2026-05-05 19:08 33.49972 -120.45618 32223 ft 487 kts 55°
2026-05-05 19:09 33.51721 -120.42128 31358 ft 487 kts 55°
2026-05-05 19:09 33.53439 -120.38689 30991 ft 476 kts 54°
2026-05-05 19:09 33.55113 -120.35334 30758 ft 464 kts 54°
2026-05-05 19:09 33.56760 -120.32032 30351 ft 456 kts 55°
2026-05-05 19:10 33.58386 -120.28771 29794 ft 452 kts 55°
2026-05-05 19:10 33.59993 -120.25547 29117 ft 451 kts 55°
2026-05-05 19:10 33.61578 -120.22366 28473 ft 448 kts 55°
2026-05-05 19:10 33.63165 -120.19176 27887 ft 444 kts 55°
2026-05-05 19:11 33.64749 -120.15988 27313 ft 441 kts 55°
2026-05-05 19:11 33.66300 -120.12864 26684 ft 435 kts 55°
2026-05-05 19:11 33.67840 -120.09758 25731 ft 429 kts 55°
2026-05-05 19:11 33.69354 -120.06703 24653 ft 426 kts 55°
2026-05-05 19:12 33.70849 -120.03686 23598 ft 421 kts 55°
2026-05-05 19:12 33.72331 -120.00691 22612 ft 413 kts 55°
2026-05-05 19:12 33.73773 -119.97771 22037 ft 398 kts 55°
2026-05-05 19:12 33.75189 -119.94909 21603 ft 410 kts 55°
2026-05-05 19:13 33.76660 -119.91934 20986 ft 413 kts 56°
2026-05-05 19:13 33.78113 -119.88988 20417 ft 410 kts 56°
2026-05-05 19:13 33.79555 -119.86062 19865 ft 407 kts 56°
2026-05-05 19:13 33.80986 -119.83156 19317 ft 406 kts 56°
2026-05-05 19:14 33.82428 -119.80224 18752 ft 404 kts 56°
2026-05-05 19:14 33.83849 -119.77333 18190 ft 401 kts 56°
2026-05-05 19:14 33.85264 -119.74453 17635 ft 399 kts 56°
2026-05-05 19:14 33.86663 -119.71601 17144 ft 394 kts 56°
2026-05-05 19:15 33.88024 -119.68823 17024 ft 378 kts 56°
2026-05-05 19:15 33.89333 -119.66149 17014 ft 362 kts 56°
2026-05-05 19:15 33.90610 -119.63548 16819 ft 360 kts 56°
2026-05-05 19:15 33.91881 -119.60973 16335 ft 359 kts 56°
2026-05-05 19:16 33.93160 -119.58376 15891 ft 356 kts 56°
2026-05-05 19:16 33.94413 -119.55830 15501 ft 351 kts 56°
2026-05-05 19:16 33.95653 -119.53307 15122 ft 346 kts 56°
2026-05-05 19:16 33.96866 -119.50840 14760 ft 344 kts 56°
2026-05-05 19:17 33.98085 -119.48357 14387 ft 344 kts 57°
2026-05-05 19:17 33.99293 -119.45894 13983 ft 341 kts 57°
2026-05-05 19:17 34.00489 -119.43453 13639 ft 339 kts 57°
2026-05-05 19:17 34.01690 -119.41001 13301 ft 337 kts 57°
2026-05-05 19:18 34.02895 -119.38539 12945 ft 336 kts 57°
2026-05-05 19:18 34.04070 -119.36136 12592 ft 334 kts 57°
2026-05-05 19:18 34.05247 -119.33729 12235 ft 331 kts 57°
2026-05-05 19:18 34.06422 -119.31323 11879 ft 328 kts 58°
2026-05-05 19:19 34.07565 -119.28983 11769 ft 325 kts 57°
2026-05-05 19:19 34.08728 -119.26608 11734 ft 329 kts 57°
2026-05-05 19:19 34.09890 -119.24228 11657 ft 328 kts 57°
2026-05-05 19:19 34.11052 -119.21848 11569 ft 328 kts 57°
2026-05-05 19:20 34.12212 -119.19469 11478 ft 327 kts 57°
2026-05-05 19:20 34.13384 -119.17065 11386 ft 340 kts 57°
2026-05-05 19:20 34.14567 -119.14636 11205 ft 328 kts 57°
2026-05-05 19:20 34.15677 -119.12349 11152 ft 305 kts 58°
2026-05-05 19:21 34.16747 -119.10149 11149 ft 299 kts 57°
2026-05-05 19:21 34.17672 -119.07925 11025 ft 294 kts 71°
2026-05-05 19:21 34.17835 -119.05513 10929 ft 296 kts 96°
2026-05-05 19:21 34.17264 -119.03089 10869 ft 300 kts 109°
2026-05-05 19:22 34.16450 -119.00796 10798 ft 299 kts 112°
2026-05-05 19:22 34.15572 -118.98518 10722 ft 299 kts 113°
2026-05-05 19:22 34.14677 -118.96229 10645 ft 298 kts 113°
2026-05-05 19:22 34.13792 -118.93967 10572 ft 297 kts 113°
2026-05-05 19:23 34.12905 -118.91702 10499 ft 298 kts 113°
2026-05-05 19:23 34.12024 -118.89452 10426 ft 297 kts 114°
2026-05-05 19:23 34.11135 -118.87183 10356 ft 297 kts 114°
2026-05-05 19:23 34.10247 -118.84918 10281 ft 297 kts 114°
2026-05-05 19:24 34.09371 -118.82687 10208 ft 297 kts 114°
2026-05-05 19:24 34.08482 -118.80422 10132 ft 297 kts 114°
2026-05-05 19:24 34.07596 -118.78167 10063 ft 296 kts 114°
2026-05-05 19:24 34.06723 -118.75947 9990 ft 293 kts 113°
2026-05-05 19:25 34.05852 -118.73731 9845 ft 287 kts 114°
2026-05-05 19:25 34.05007 -118.71573 9574 ft 284 kts 114°
2026-05-05 19:25 34.04169 -118.69437 9297 ft 281 kts 114°
2026-05-05 19:25 34.03340 -118.67310 9047 ft 277 kts 111°
2026-05-05 19:26 34.02858 -118.65099 8816 ft 275 kts 97°
2026-05-05 19:26 34.02620 -118.62822 8616 ft 275 kts 95°
2026-05-05 19:26 34.02408 -118.60507 8410 ft 273 kts 95°
2026-05-05 19:26 34.02200 -118.58257 8206 ft 272 kts 95°
2026-05-05 19:27 34.01984 -118.55963 7998 ft 272 kts 95°
2026-05-05 19:27 34.01774 -118.53738 7783 ft 269 kts 95°
2026-05-05 19:27 34.01565 -118.51514 7549 ft 265 kts 95°
2026-05-05 19:27 34.01358 -118.49313 7320 ft 260 kts 95°
2026-05-05 19:28 34.01155 -118.47163 7101 ft 256 kts 95°
2026-05-05 19:28 34.01157 -118.45039 6840 ft 249 kts 79°
2026-05-05 19:28 34.01469 -118.43032 6696 ft 243 kts 76°
2026-05-05 19:28 34.01815 -118.41060 6493 ft 239 kts 76°
2026-05-05 19:29 34.02152 -118.39120 6289 ft 235 kts 77°
2026-05-05 19:29 34.02484 -118.37193 5941 ft 236 kts 77°
2026-05-05 19:29 34.02827 -118.35185 5044 ft 257 kts 79°
2026-05-05 19:29 34.03042 -118.33031 4666 ft 251 kts 84°
2026-05-05 19:30 34.03225 -118.30969 4244 ft 250 kts 83°
2026-05-05 19:30 34.03407 -118.28897 3997 ft 242 kts 89°
2026-05-05 19:30 34.03041 -118.26868 3895 ft 249 kts 120°
2026-05-05 19:30 34.01912 -118.25367 3791 ft 238 kts 149°
2026-05-05 19:31 34.00399 -118.24710 3471 ft 231 kts 178°
2026-05-05 19:31 33.98848 -118.25066 3097 ft 223 kts 210°
2026-05-05 19:31 33.97799 -118.26315 2947 ft 206 kts 239°
2026-05-05 19:31 33.97115 -118.27791 2700 ft 199 kts 242°
2026-05-05 19:32 33.96398 -118.29195 2286 ft 196 kts 237°
2026-05-05 19:32 33.96015 -118.30691 1788 ft 186 kts 274°
2026-05-05 19:32 33.96160 -118.32194 1457 ft 172 kts 263°
2026-05-05 19:32 33.95761 -118.33491 1223 ft 160 kts 251°
2026-05-05 19:33 33.95678 -118.34778 979 ft 152 kts 267°
2026-05-05 19:33 33.95620 -118.36036 773 ft 147 kts 264°
2026-05-05 19:33 33.95507 -118.37246 598 ft 148 kts 262°
2026-05-05 19:33 33.95385 -118.38491 416 ft 149 kts 263°
2026-05-05 19:34 33.95261 -118.39715 232 ft 147 kts 262°
2026-05-05 19:34 33.95138 -118.40914 130 ft 129 kts 263°
2026-05-05 19:34 33.95050 -118.41772 129 ft 76 kts 263°
2026-05-05 19:35 33.94926 -118.42390 124 ft 26 kts 231°
2026-05-05 19:35 33.94833 -118.42488 122 ft 14 kts 194°
2026-05-05 19:35 33.94734 -118.42481 121 ft 14 kts 173°
2026-05-05 19:35 33.94638 -118.42467 121 ft 13 kts 173°
2026-05-05 19:36 33.94581 -118.42439 121 ft 7 kts 111°
2026-05-05 19:36 33.94585 -118.42371 121 ft 12 kts 83°
2026-05-05 19:36 33.94601 -118.42226 123 ft 20 kts 83°
2026-05-05 19:36 33.94619 -118.42064 125 ft 18 kts 83°
2026-05-05 19:37 33.94634 -118.41913 126 ft 20 kts 83°
2026-05-05 19:37 33.94650 -118.41737 127 ft 20 kts 86°
2026-05-05 19:37 33.94665 -118.41573 129 ft 19 kts 83°
2026-05-05 19:37 33.94677 -118.41451 129 ft 10 kts 83°
2026-05-05 19:38 33.94658 -118.41386 129 ft 9 kts 163°
2026-05-05 19:38 33.94591 -118.41370 130 ft 10 kts 173°
2026-05-05 19:38 33.94511 -118.41360 130 ft 11 kts 174°
2026-05-05 19:38 33.94430 -118.41348 130 ft 12 kts 173°
2026-05-05 19:39 33.94340 -118.41335 130 ft 13 kts 174°
2026-05-05 19:39 33.94262 -118.41303 130 ft 11 kts 120°
2026-05-05 19:39 33.94252 -118.41215 130 ft 8 kts 86°
2026-05-05 19:39 33.94256 -118.41155 131 ft 5 kts 83°
2026-05-05 19:40 33.94259 -118.41118 131 ft 1 kts 84°
2026-05-05 19:40 33.94260 -118.41116 131 ft 0 kts 84°